M I D A S
Marine Information and Data Acquisition System
Tripno 1232 of the Zeeleeuw from 2007-03-16 08:07:43 to 2007-03-16 14:35:49
Back to CruiseResearch ActivitiesStationsMapUnderway DataData graphs

EquipmentUnitsComments
TimeDGPSUTC
LatitudeDGPSDM.mWGS84
LongitudeDGPSDM.mWGS84
SpeedMeteo Stationm/sRelative wind speed
DirectionMeteo StationdegRelative wind direction
TemperatureMeteo Stationdeg CelciusAir temperature
PressureMeteo StationPaAtmospheric pressure
HumidityMeteo Station%Relative humidity
Missing or incorrect values are displayed as -999
Metereological data collected by the RV Zeeleeuw from 2007-03-16 08:07:44 to 2007-03-16 14:45:47
Time Latitude Longitude Speed Direction Temperature Pressure Humidity
2007-03-16 08:08 51°13.614 2°56.038 5.1 37 9.6 102720 94
2007-03-16 08:09 51°13.653 2°55.918 4.6 33 9.8 102720 94
2007-03-16 08:10 51°13.681 2°55.804 4.4 36 9.9 102720 94
2007-03-16 08:11 51°13.683 2°55.736 2.2 263 9.8 102720 93
2007-03-16 08:12 51°13.708 2°55.743 5.1 31 9.7 102720 93
2007-03-16 08:13 51°13.791 2°55.666 6.4 331 9.7 102710 93
2007-03-16 08:14 51°13.936 2°55.558 6.4 329 9.6 102720 93
2007-03-16 08:15 51°14.057 2°55.472 6.6 323 9.6 102720 93
2007-03-16 08:16 51°14.179 2°55.372 8.4 323 9.6 102710 93
2007-03-16 08:17 51°14.316 2°55.158 11 327 9.5 102710 94
2007-03-16 08:18 51°14.437 2°54.867 11.1 334 9.5 102710 94
2007-03-16 08:19 51°14.431 2°54.53 10.5 344 9.4 102720 94
2007-03-16 08:20 51°14.322 2°54.24 10.2 346 9.4 102710 94
2007-03-16 08:21 51°14.209 2°53.948 8.8 343 9.3 102710 94
2007-03-16 08:22 51°14.097 2°53.655 9.9 345 9.3 102720 95
2007-03-16 08:23 51°13.985 2°53.361 9.6 344 9.3 102720 95
2007-03-16 08:24 51°13.874 2°53.067 9.5 344 9.3 102720 95
2007-03-16 08:25 51°13.764 2°52.771 9.6 343 9.2 102720 95
2007-03-16 08:26 51°13.655 2°52.471 9.5 345 9.2 102710 95
2007-03-16 08:27 51°13.545 2°52.171 8.9 345 9.2 102730 95
2007-03-16 08:28 51°13.434 2°51.871 9.7 346 9.2 102730 95
2007-03-16 08:29 51°13.323 2°51.571 9.3 345 9.2 102720 95
2007-03-16 08:30 51°13.212 2°51.273 9.2 346 9.2 102720 95
2007-03-16 08:31 51°13.104 2°50.976 10 347 9.2 102720 95
2007-03-16 08:32 51°13.001 2°50.67 9.6 345 9.2 102720 95
2007-03-16 08:33 51°12.9 2°50.375 9 342 9.2 102720 95
2007-03-16 08:34 51°12.799 2°50.067 9.2 343 9.2 102720 95
2007-03-16 08:35 51°12.698 2°49.764 9.8 343 9.2 102720 95
2007-03-16 08:36 51°12.599 2°49.462 9.4 342 9.2 102720 95
2007-03-16 08:37 51°12.499 2°49.16 9.7 342 9.2 102720 95
2007-03-16 08:38 51°12.4 2°48.859 9.1 343 9.2 102720 95
2007-03-16 08:39 51°12.304 2°48.563 9.3 342 9.2 102720 95
2007-03-16 08:40 51°12.232 2°48.238 10.2 342 9.3 102720 95
2007-03-16 08:41 51°12.164 2°47.917 9.7 343 9.3 102720 95
2007-03-16 08:42 51°12.105 2°47.595 9.5 341 9.3 102730 94
2007-03-16 08:43 51°12.049 2°47.262 9.6 340 9.3 102720 94
2007-03-16 08:44 51°12.036 2°46.927 10.1 339 9.3 102720 94
2007-03-16 08:45 51°12.003 2°46.603 10.1 340 9.3 102720 94
2007-03-16 08:46 51°11.967 2°46.284 9.8 341 9.3 102730 94
2007-03-16 08:47 51°11.931 2°45.958 9.8 339 9.3 102730 94
2007-03-16 08:48 51°11.895 2°45.632 9.6 341 9.3 102730 94
2007-03-16 08:49 51°11.857 2°45.301 9.4 339 9.3 102730 94
2007-03-16 08:50 51°11.821 2°44.982 10.3 341 9.3 102730 94
2007-03-16 08:51 51°11.784 2°44.66 9.4 338 9.3 102730 94
2007-03-16 08:52 51°11.746 2°44.336 10.1 341 9.3 102730 94
2007-03-16 08:53 51°11.707 2°44.012 9.6 346 9.3 102730 94
2007-03-16 08:54 51°11.67 2°43.687 9.5 348 9.2 102730 94
2007-03-16 08:55 51°11.633 2°43.363 9.6 346 9.1 102730 95
2007-03-16 08:56 51°11.597 2°43.037 10 346 9 102730 95
2007-03-16 08:57 51°11.56 2°42.713 9.8 347 9 102730 96
2007-03-16 08:58 51°11.519 2°42.392 9.3 347 8.9 102730 96
2007-03-16 08:59 51°11.459 2°42.076 8.8 347 8.9 102740 96
2007-03-16 09:00 51°11.4 2°41.759 9.1 346 8.9 102730 96
2007-03-16 09:01 51°11.342 2°41.444 9.1 347 8.8 102730 96
2007-03-16 09:02 51°11.284 2°41.131 9.4 346 8.8 102730 97
2007-03-16 09:03 51°11.228 2°40.817 8.7 345 8.8 102730 96
2007-03-16 09:04 51°11.174 2°40.503 9.4 348 8.9 102730 96
2007-03-16 09:05 51°11.104 2°40.198 8.8 348 8.8 102740 96
2007-03-16 09:06 51°11.015 2°39.909 7.3 350 8.8 102730 96
2007-03-16 09:07 51°10.86 2°39.688 6.8 353 8.8 102740 96
2007-03-16 09:08 51°10.699 2°39.483 6.2 351 8.8 102740 96
2007-03-16 09:09 51°10.539 2°39.273 7.1 355 8.8 102740 96
2007-03-16 09:10 51°10.379 2°39.062 7 353 8.8 102740 96
2007-03-16 09:11 51°10.219 2°38.847 7.5 352 8.8 102740 96
2007-03-16 09:12 51°10.064 2°38.623 6.9 350 8.8 102740 96
2007-03-16 09:13 51°9.907 2°38.405 7.1 351 8.8 102740 96
2007-03-16 09:14 51°9.754 2°38.191 7.2 353 8.8 102740 96
2007-03-16 09:15 51°9.597 2°37.976 7.8 353 8.9 102740 95
2007-03-16 09:16 51°9.443 2°37.75 7.2 351 8.9 102740 96
2007-03-16 09:17 51°9.35 2°37.577 5.3 358 8.9 102740 96
2007-03-16 09:18 51°9.291 2°37.48 4.1 6 8.9 102750 96
2007-03-16 09:19 51°9.247 2°37.403 3.9 6 8.9 102750 96
2007-03-16 09:20 51°9.217 2°37.325 4.1 8 8.9 102750 96
2007-03-16 09:21 51°9.188 2°37.251 2.9 5 8.9 102750 96
2007-03-16 09:22 51°9.161 2°37.181 4.3 359 8.9 102750 96
2007-03-16 09:23 51°9.158 2°37.143 4 352 8.9 102760 96
2007-03-16 09:24 51°9.167 2°37.151 3.6 347 8.9 102760 96
2007-03-16 09:25 51°9.176 2°37.166 3.4 348 8.9 102760 96
2007-03-16 09:26 51°9.183 2°37.186 3.7 347 8.9 102760 96
2007-03-16 09:27 51°9.19 2°37.207 3.4 355 8.9 102760 96
2007-03-16 09:28 51°9.196 2°37.231 3.4 353 8.8 102760 95
2007-03-16 09:29 51°9.201 2°37.257 2.5 354 8.9 102760 96
2007-03-16 09:30 51°9.206 2°37.283 2.3 355 8.9 102760 95
2007-03-16 09:31 51°9.211 2°37.31 2.2 357 8.9 102760 95
2007-03-16 09:32 51°9.215 2°37.338 1.9 2 8.9 102760 95
2007-03-16 09:33 51°9.22 2°37.364 2.2 359 8.9 102760 95
2007-03-16 09:34 51°9.225 2°37.39 1.9 358 9 102760 95
2007-03-16 09:35 51°9.229 2°37.417 1.8 359 9 102760 95
2007-03-16 09:36 51°9.233 2°37.445 2.1 2 9 102760 95
2007-03-16 09:37 51°9.236 2°37.474 2.5 6 9 102760 95
2007-03-16 09:38 51°9.237 2°37.503 2.3 7 9 102770 95
2007-03-16 09:39 51°9.24 2°37.533 2.9 10 9 102770 95
2007-03-16 09:40 51°9.242 2°37.564 3.1 12 9 102770 95
2007-03-16 09:41 51°9.244 2°37.594 2.6 16 9 102770 94
2007-03-16 09:42 51°9.247 2°37.625 2.4 15 9 102780 94
2007-03-16 09:43 51°9.249 2°37.655 2.3 20 9.1 102770 94
2007-03-16 09:44 51°9.251 2°37.685 2.7 17 9.1 102780 94
2007-03-16 09:45 51°9.253 2°37.714 2.2 20 9.1 102780 94
2007-03-16 09:46 51°9.254 2°37.742 2.1 17 9.2 102770 94
2007-03-16 09:47 51°9.257 2°37.769 2.3 14 9.2 102770 94
2007-03-16 09:48 51°9.26 2°37.795 2.1 15 9.2 102770 94
2007-03-16 09:49 51°9.263 2°37.822 2 12 9.2 102770 94
2007-03-16 09:50 51°9.265 2°37.849 2.3 14 9.2 102770 94
2007-03-16 09:51 51°9.268 2°37.876 1.8 18 9.2 102770 93
2007-03-16 09:52 51°9.271 2°37.902 1.8 21 9.2 102770 94
2007-03-16 09:53 51°9.274 2°37.928 2.1 12 9.3 102770 93
2007-03-16 09:54 51°9.278 2°37.953 2 10 9.3 102770 93
2007-03-16 09:55 51°9.282 2°37.979 1.7 7 9.2 102770 93
2007-03-16 09:56 51°9.285 2°38.005 1.7 8 9.2 102770 93
2007-03-16 09:57 51°9.289 2°38.031 1.3 359 9.2 102780 93
2007-03-16 09:58 51°9.293 2°38.057 1.3 355 9.2 102770 93
2007-03-16 09:59 51°9.297 2°38.083 1.3 356 9.2 102770 93
2007-03-16 10:00 51°9.302 2°38.11 1.3 7 9.2 102770 93
2007-03-16 10:01 51°9.306 2°38.136 1.4 7 9.2 102770 93
2007-03-16 10:02 51°9.312 2°38.162 1.2 6 9.2 102770 93
2007-03-16 10:03 51°9.317 2°38.187 1.1 2 9.2 102770 93
2007-03-16 10:04 51°9.321 2°38.213 1.1 357 9.2 102770 93
2007-03-16 10:05 51°9.326 2°38.239 0.9 356 9.2 102770 93
2007-03-16 10:06 51°9.331 2°38.264 0.5 360 9.2 102770 93
2007-03-16 10:07 51°9.336 2°38.288 0.7 357 9.2 102770 93
2007-03-16 10:08 51°9.342 2°38.313 1 354 9.3 102770 93
2007-03-16 10:09 51°9.347 2°38.338 0.9 358 9.3 102770 93
2007-03-16 10:10 51°9.352 2°38.364 0.9 2 9.3 102760 92
2007-03-16 10:11 51°9.357 2°38.389 0.7 348 9.3 102760 92
2007-03-16 10:12 51°9.363 2°38.414 0.8 352 9.3 102770 92
2007-03-16 10:13 51°9.368 2°38.439 0.9 350 9.3 102770 92
2007-03-16 10:14 51°9.373 2°38.464 0.8 351 9.3 102770 92
2007-03-16 10:15 51°9.378 2°38.49 1 359 9.3 102770 92
2007-03-16 10:16 51°9.382 2°38.515 1.2 355 9.4 102770 92
2007-03-16 10:17 51°9.387 2°38.541 1.3 358 9.4 102770 92
2007-03-16 10:18 51°9.392 2°38.565 1.1 352 9.3 102770 92
2007-03-16 10:19 51°9.397 2°38.591 1 350 9.3 102770 92
2007-03-16 10:20 51°9.401 2°38.617 0.9 355 9.4 102770 92
2007-03-16 10:21 51°9.407 2°38.642 0.9 356 9.4 102760 92
2007-03-16 10:22 51°9.411 2°38.666 1.3 355 9.4 102770 92
2007-03-16 10:23 51°9.412 2°38.673 1.6 350 9.4 102770 92
2007-03-16 10:24 51°9.408 2°38.663 1.9 346 9.3 102770 92
2007-03-16 10:25 51°9.403 2°38.64 2.1 343 9.3 102770 92
2007-03-16 10:26 51°9.396 2°38.612 1.9 343 9.4 102770 92
2007-03-16 10:27 51°9.39 2°38.59 2 343 9.4 102760 92
2007-03-16 10:28 51°9.383 2°38.57 1.7 344 9.5 102760 92
2007-03-16 10:29 51°9.377 2°38.553 1.7 342 9.6 102760 91
2007-03-16 10:30 51°9.371 2°38.535 1.6 344 9.6 102760 91
2007-03-16 10:31 51°9.367 2°38.517 1.9 340 9.6 102760 91
2007-03-16 10:32 51°9.363 2°38.496 2.1 341 9.7 102760 91
2007-03-16 10:33 51°9.36 2°38.474 2.2 342 9.8 102760 91
2007-03-16 10:34 51°9.355 2°38.451 1.8 343 9.8 102760 90
2007-03-16 10:35 51°9.35 2°38.429 1.6 340 9.8 102750 90
2007-03-16 10:36 51°9.345 2°38.408 1.7 337 9.8 102750 90
2007-03-16 10:37 51°9.338 2°38.387 2 336 9.9 102750 90
2007-03-16 10:38 51°9.331 2°38.367 2.1 331 10 102750 90
2007-03-16 10:39 51°9.325 2°38.346 1.9 333 10.1 102750 89
2007-03-16 10:40 51°9.32 2°38.324 1.9 333 10.1 102760 88
2007-03-16 10:41 51°9.315 2°38.302 2.1 327 10.2 102750 87
2007-03-16 10:42 51°9.31 2°38.281 1.8 335 10.3 102750 87
2007-03-16 10:43 51°9.304 2°38.258 1.9 331 10.4 102750 87
2007-03-16 10:44 51°9.301 2°38.233 2.1 325 10.5 102750 86
2007-03-16 10:45 51°9.298 2°38.207 2.5 326 10.5 102750 86
2007-03-16 10:46 51°9.293 2°38.185 2.3 334 10.5 102750 85
2007-03-16 10:47 51°9.286 2°38.166 2.2 332 10.5 102750 85
2007-03-16 10:48 51°9.279 2°38.146 2.2 331 10.5 102750 84
2007-03-16 10:49 51°9.274 2°38.127 2.3 328 10.5 102740 84
2007-03-16 10:50 51°9.271 2°38.107 2.4 328 10.5 102740 84
2007-03-16 10:51 51°9.268 2°38.087 2.4 326 10.6 102740 84
2007-03-16 10:52 51°9.265 2°38.069 2.3 330 10.6 102740 84
2007-03-16 10:53 51°9.262 2°38.05 2.5 331 10.6 102740 84
2007-03-16 10:54 51°9.258 2°38.032 2.4 329 10.6 102740 84
2007-03-16 10:55 51°9.255 2°38.012 2.6 327 10.5 102740 84
2007-03-16 10:56 51°9.254 2°37.99 2.2 325 10.5 102750 84
2007-03-16 10:57 51°9.253 2°37.975 2.4 327 10.6 102740 84
2007-03-16 10:58 51°9.254 2°37.969 2.3 318 10.6 102740 84
2007-03-16 10:59 51°9.257 2°37.97 2.2 319 10.6 102740 84
2007-03-16 11:00 51°9.261 2°37.974 2.3 31 10.7 102740 84
2007-03-16 11:01 51°9.267 2°37.983 2 40 10.7 102740 84
2007-03-16 11:02 51°9.274 2°37.993 2.3 33 10.8 102740 83
2007-03-16 11:03 51°9.282 2°38.006 2.4 34 10.7 102740 83
2007-03-16 11:04 51°9.291 2°38.021 2.2 238 10.7 102740 83
2007-03-16 11:05 51°9.3 2°38.04 2.6 243 10.7 102740 84
2007-03-16 11:06 51°9.31 2°38.06 2.7 250 10.7 102740 84
2007-03-16 11:07 51°9.32 2°38.082 3 254 10.7 102740 83
2007-03-16 11:08 51°9.331 2°38.105 2.7 258 10.7 102740 83
2007-03-16 11:09 51°9.342 2°38.13 2 262 10.7 102740 83
2007-03-16 11:10 51°9.351 2°38.156 1.9 263 10.7 102740 83
2007-03-16 11:11 51°9.361 2°38.182 2.3 266 10.7 102740 83
2007-03-16 11:12 51°9.37 2°38.208 2.2 266 10.6 102750 83
2007-03-16 11:13 51°9.379 2°38.236 3.2 269 10.5 102740 83
2007-03-16 11:14 51°9.387 2°38.264 2.3 268 10.3 102740 83
2007-03-16 11:15 51°9.395 2°38.292 2.6 35 10.3 102740 84
2007-03-16 11:16 51°9.402 2°38.32 2.3 34 10.2 102750 84
2007-03-16 11:17 51°9.41 2°38.349 3.1 32 10.2 102750 85
2007-03-16 11:18 51°9.416 2°38.378 2.7 39 10.1 102750 85
2007-03-16 11:19 51°9.423 2°38.406 3.3 39 10.1 102750 86
2007-03-16 11:20 51°9.429 2°38.434 2.8 38 10 102750 86
2007-03-16 11:21 51°9.436 2°38.463 3.1 39 10 102750 87
2007-03-16 11:22 51°9.442 2°38.492 3.4 31 9.9 102750 87
2007-03-16 11:23 51°9.449 2°38.521 3.8 270 9.9 102750 88
2007-03-16 11:24 51°9.455 2°38.55 3.4 36 9.9 102750 88
2007-03-16 11:25 51°9.462 2°38.579 4.8 35 9.9 102750 88
2007-03-16 11:26 51°9.468 2°38.608 3.9 42 9.9 102750 88
2007-03-16 11:27 51°9.475 2°38.637 4.1 40 9.9 102750 87
2007-03-16 11:28 51°9.482 2°38.666 3.7 270 9.9 102750 87
2007-03-16 11:29 51°9.489 2°38.694 3.9 268 9.9 102750 87
2007-03-16 11:30 51°9.495 2°38.722 4.5 270 9.9 102750 87
2007-03-16 11:31 51°9.501 2°38.751 4.4 265 9.8 102750 88
2007-03-16 11:32 51°9.507 2°38.78 4.1 266 9.8 102750 88
2007-03-16 11:33 51°9.513 2°38.808 3.5 264 9.8 102750 88
2007-03-16 11:34 51°9.52 2°38.837 3.6 265 9.9 102750 88
2007-03-16 11:35 51°9.525 2°38.865 5.1 261 9.8 102750 88
2007-03-16 11:36 51°9.531 2°38.894 4.6 264 9.9 102750 89
2007-03-16 11:37 51°9.537 2°38.923 5.8 261 9.8 102750 89
2007-03-16 11:38 51°9.559 2°38.979 3.7 36 9.8 102750 89
2007-03-16 11:39 51°9.558 2°39.078 5.3 36 9.8 102760 90
2007-03-16 11:40 51°9.536 2°39.141 5.9 32 9.6 102760 89
2007-03-16 11:41 51°9.515 2°39.178 5.3 28 9.5 102760 90
2007-03-16 11:42 51°9.499 2°39.209 5.4 26 9.5 102750 91
2007-03-16 11:43 51°9.473 2°39.234 6.8 12 9.4 102760 90
2007-03-16 11:44 51°9.41 2°39.209 7.8 353 9.4 102750 90
2007-03-16 11:45 51°9.356 2°39.14 7 348 9.3 102750 90
2007-03-16 11:46 51°9.327 2°39.069 7.3 346 9.2 102750 91
2007-03-16 11:47 51°9.297 2°39.008 7 346 9.2 102750 90
2007-03-16 11:48 51°9.276 2°38.939 7.1 343 9.2 102750 91
2007-03-16 11:49 51°9.26 2°38.858 7 343 9.2 102750 91
2007-03-16 11:50 51°9.246 2°38.774 6.3 341 9.3 102750 91
2007-03-16 11:51 51°9.233 2°38.695 7 343 9.4 102750 91
2007-03-16 11:52 51°9.221 2°38.618 7.4 339 9.5 102740 90
2007-03-16 11:53 51°9.208 2°38.542 7.3 337 9.5 102740 90
2007-03-16 11:54 51°9.195 2°38.465 6.6 337 9.5 102740 89
2007-03-16 11:55 51°9.183 2°38.386 6.6 339 9.5 102750 89
2007-03-16 11:56 51°9.171 2°38.306 6.1 338 9.5 102750 90
2007-03-16 11:57 51°9.16 2°38.227 7.2 338 9.5 102750 89
2007-03-16 11:58 51°9.148 2°38.15 6.7 340 9.5 102750 89
2007-03-16 11:59 51°9.136 2°38.073 7.3 338 9.5 102750 90
2007-03-16 12:00 51°9.125 2°37.996 6.1 338 9.5 102740 89
2007-03-16 12:01 51°9.113 2°37.92 7.5 341 9.6 102750 89
2007-03-16 12:02 51°9.102 2°37.844 7.5 340 9.5 102740 89
2007-03-16 12:03 51°9.091 2°37.769 6.7 339 9.5 102740 89
2007-03-16 12:04 51°9.08 2°37.693 7 338 9.6 102740 90
2007-03-16 12:05 51°9.068 2°37.618 6.7 343 9.5 102740 89
2007-03-16 12:06 51°9.056 2°37.542 7.4 344 9.5 102740 90
2007-03-16 12:07 51°9.045 2°37.466 7.5 343 9.4 102740 90
2007-03-16 12:08 51°9.033 2°37.39 8 343 9.3 102740 90
2007-03-16 12:09 51°9.02 2°37.315 7.7 344 9.3 102740 90
2007-03-16 12:10 51°9.008 2°37.24 6.8 342 9.2 102740 90
2007-03-16 12:11 51°8.996 2°37.164 7.8 344 9.2 102740 91
2007-03-16 12:12 51°8.983 2°37.087 7.6 343 9.2 102740 91
2007-03-16 12:13 51°8.971 2°37.011 7.6 342 9.2 102750 91
2007-03-16 12:14 51°8.959 2°36.934 7.8 345 9.2 102740 91
2007-03-16 12:15 51°8.946 2°36.858 6.9 343 9.2 102750 92
2007-03-16 12:16 51°8.935 2°36.779 7.9 341 9.2 102740 92
2007-03-16 12:17 51°8.923 2°36.701 7.7 342 9.3 102740 92
2007-03-16 12:18 51°8.911 2°36.622 7.8 341 9.3 102740 92
2007-03-16 12:19 51°8.898 2°36.543 7.4 341 9.3 102740 92
2007-03-16 12:20 51°8.886 2°36.463 7 341 9.3 102740 91
2007-03-16 12:21 51°8.873 2°36.383 6.4 343 9.3 102740 91
2007-03-16 12:22 51°8.86 2°36.303 7.2 344 9.3 102740 92
2007-03-16 12:23 51°8.841 2°36.227 6.1 342 9.2 102740 91
2007-03-16 12:24 51°8.817 2°36.154 6.7 344 9.2 102740 92
2007-03-16 12:25 51°8.795 2°36.08 6.4 347 9.2 102740 92
2007-03-16 12:26 51°8.772 2°36.005 6.4 345 9.1 102740 92
2007-03-16 12:27 51°8.75 2°35.93 6.5 345 9.1 102740 92
2007-03-16 12:28 51°8.725 2°35.856 6 346 9 102730 92
2007-03-16 12:29 51°8.709 2°35.778 6.4 336 9.1 102740 92
2007-03-16 12:30 51°8.709 2°35.694 6.4 330 9.2 102740 92
2007-03-16 12:31 51°8.729 2°35.616 6.9 318 9.3 102740 92
2007-03-16 12:32 51°8.769 2°35.568 6.3 31 9.3 102730 91
2007-03-16 12:33 51°8.807 2°35.555 6.1 243 9.3 102730 91
2007-03-16 12:34 51°8.84 2°35.558 6 247 9.3 102730 91
2007-03-16 12:35 51°8.868 2°35.566 5.9 247 9.4 102730 91
2007-03-16 12:36 51°8.888 2°35.575 5.5 248 9.4 102730 91
2007-03-16 12:37 51°8.904 2°35.586 6.3 245 9.4 102730 91
2007-03-16 12:38 51°8.918 2°35.599 7.1 250 9.4 102730 90
2007-03-16 12:39 51°8.942 2°35.616 6.6 261 9.4 102730 90
2007-03-16 12:40 51°8.976 2°35.702 3.1 36 9.4 102730 89
2007-03-16 12:41 51°8.916 2°35.78 7.6 10 9.4 102730 89
2007-03-16 12:42 51°8.805 2°35.831 5.2 8 9.3 102720 89
2007-03-16 12:43 51°8.71 2°35.856 5.5 5 9.3 102710 90
2007-03-16 12:44 51°8.657 2°35.839 5.8 3 9.2 102720 90
2007-03-16 12:45 51°8.624 2°35.818 6.5 358 9.2 102710 91
2007-03-16 12:46 51°8.592 2°35.773 7 342 9.2 102710 91
2007-03-16 12:47 51°8.587 2°35.685 7.1 329 9.2 102710 91
2007-03-16 12:48 51°8.599 2°35.624 6.5 327 9.2 102710 91
2007-03-16 12:49 51°8.621 2°35.582 6.6 31 9.2 102710 91
2007-03-16 12:50 51°8.649 2°35.567 6.3 236 9.3 102710 91
2007-03-16 12:51 51°8.686 2°35.569 7.1 254 9.3 102710 91
2007-03-16 12:52 51°8.733 2°35.63 4.3 38 9.3 102710 90
2007-03-16 12:53 51°8.763 2°35.737 3.7 40 9.3 102710 90
2007-03-16 12:54 51°8.781 2°35.838 3.9 31 9.3 102720 90
2007-03-16 12:55 51°8.8 2°35.921 4.3 35 9.3 102710 90
2007-03-16 12:56 51°8.818 2°35.994 4.6 36 9.3 102710 90
2007-03-16 12:57 51°8.82 2°36.067 2 40 9.2 102710 90
2007-03-16 12:58 51°8.812 2°36.141 3.8 34 9.5 102710 91
2007-03-16 12:59 51°8.813 2°36.222 2.1 37 9.5 102710 90
2007-03-16 13:00 51°8.807 2°36.309 2.4 31 9.5 102710 91
2007-03-16 13:01 51°8.799 2°36.398 2 37 9.8 102710 91
2007-03-16 13:02 51°8.791 2°36.487 2.4 38 10 102710 90
2007-03-16 13:03 51°8.784 2°36.575 1.7 30 10.1 102710 88
2007-03-16 13:04 51°8.777 2°36.664 1.9 32 10.2 102700 87
2007-03-16 13:05 51°8.766 2°36.752 2.6 35 10.2 102700 87
2007-03-16 13:06 51°8.753 2°36.839 2.3 36 10 102700 84
2007-03-16 13:07 51°8.742 2°36.927 2.6 38 10 102700 86
2007-03-16 13:08 51°8.729 2°37.015 4.3 38 9.9 102700 86
2007-03-16 13:09 51°8.717 2°37.103 3.3 38 9.7 102700 86
2007-03-16 13:10 51°8.711 2°37.19 1.9 38 9.5 102690 87
2007-03-16 13:11 51°8.716 2°37.28 2.3 38 9.7 102690 89
2007-03-16 13:12 51°8.723 2°37.37 2.2 38 9.7 102700 87
2007-03-16 13:13 51°8.73 2°37.46 2.2 32 9.6 102690 87
2007-03-16 13:14 51°8.737 2°37.55 2.2 34 9.4 102700 87
2007-03-16 13:15 51°8.743 2°37.64 3.1 39 9.4 102700 89
2007-03-16 13:16 51°8.752 2°37.726 4.1 30 9.3 102690 89
2007-03-16 13:17 51°8.775 2°37.806 3.7 34 9.3 102690 89
2007-03-16 13:18 51°8.804 2°37.881 4.3 33 9.4 102690 90
2007-03-16 13:19 51°8.833 2°37.958 3.6 37 9.4 102690 89
2007-03-16 13:20 51°8.858 2°38.038 3.6 38 9.4 102680 89
2007-03-16 13:21 51°8.882 2°38.119 4 33 9.4 102680 89
2007-03-16 13:22 51°8.906 2°38.2 4 36 9.4 102680 89
2007-03-16 13:23 51°8.928 2°38.281 3.2 32 9.4 102680 89
2007-03-16 13:24 51°8.951 2°38.363 3.6 33 9.4 102680 88
2007-03-16 13:25 51°8.972 2°38.445 3.9 38 9.4 102670 88
2007-03-16 13:26 51°8.992 2°38.527 3.1 37 9.5 102670 89
2007-03-16 13:27 51°9.01 2°38.609 3.3 37 9.5 102670 88
2007-03-16 13:28 51°9.028 2°38.692 3.2 39 9.4 102670 88
2007-03-16 13:29 51°9.036 2°38.775 3.2 38 9.4 102670 88
2007-03-16 13:30 51°9.02 2°38.852 3.6 39 9.5 102670 88
2007-03-16 13:31 51°8.989 2°38.915 3.7 33 9.5 102670 88
2007-03-16 13:32 51°8.945 2°38.943 4.8 13 9.5 102670 88
2007-03-16 13:33 51°8.911 2°38.941 6.2 10 9.5 102660 88
2007-03-16 13:34 51°8.886 2°38.938 5.3 13 9.5 102660 88
2007-03-16 13:35 51°8.866 2°38.937 5.3 18 9.4 102660 88
2007-03-16 13:36 51°8.849 2°38.94 4.3 25 9.5 102660 88
2007-03-16 13:37 51°8.824 2°38.978 3.6 38 9.4 102660 87
2007-03-16 13:38 51°8.834 2°39.042 3.1 265 9.5 102660 88
2007-03-16 13:39 51°8.936 2°39.134 5.5 31 9.5 102660 88
2007-03-16 13:40 51°9.11 2°39.276 6.5 34 9.6 102650 88
2007-03-16 13:41 51°9.322 2°39.351 7.3 233 9.6 102640 87
2007-03-16 13:42 51°9.535 2°39.453 6.8 39 9.6 102650 87
2007-03-16 13:43 51°9.74 2°39.577 7.1 34 9.6 102640 87
2007-03-16 13:44 51°9.949 2°39.706 6.5 233 9.6 102640 87
2007-03-16 13:45 51°10.152 2°39.832 7.6 233 9.6 102640 87
2007-03-16 13:46 51°10.362 2°39.966 7.3 34 9.6 102640 87
2007-03-16 13:47 51°10.565 2°40.117 6.7 36 9.6 102630 87
2007-03-16 13:48 51°10.766 2°40.281 6.5 33 9.6 102630 87
2007-03-16 13:49 51°10.917 2°40.532 3.1 31 9.6 102640 87
2007-03-16 13:50 51°10.992 2°40.862 2.5 316 9.7 102650 87
2007-03-16 13:51 51°11.076 2°41.186 3 39 9.7 102640 87
2007-03-16 13:52 51°11.172 2°41.505 3.7 235 9.7 102650 86
2007-03-16 13:53 51°11.254 2°41.833 2.6 31 9.8 102650 86
2007-03-16 13:54 51°11.32 2°42.171 3 315 9.8 102650 86
2007-03-16 13:55 51°11.386 2°42.508 2.6 319 9.9 102650 86
2007-03-16 13:56 51°11.453 2°42.843 1.7 37 9.9 102650 86
2007-03-16 13:57 51°11.503 2°43.186 2.2 323 10 102650 85
2007-03-16 13:58 51°11.544 2°43.533 2.4 332 10 102650 85
2007-03-16 13:59 51°11.587 2°43.878 2.4 322 10 102640 85
2007-03-16 14:00 51°11.63 2°44.221 2 30 10.1 102650 85
2007-03-16 14:01 51°11.673 2°44.565 1.7 32 10.1 102650 85
2007-03-16 14:02 51°11.722 2°44.907 1.2 40 10.1 102650 84
2007-03-16 14:03 51°11.77 2°45.249 2.7 321 10.2 102650 84
2007-03-16 14:04 51°11.818 2°45.591 2.4 31 10.2 102650 84
2007-03-16 14:05 51°11.866 2°45.931 2.1 320 10.2 102650 83
2007-03-16 14:06 51°11.918 2°46.27 2.4 232 10.3 102650 83
2007-03-16 14:07 51°11.973 2°46.607 2.2 38 10.3 102650 83
2007-03-16 14:08 51°12.03 2°46.944 2.3 31 10.2 102650 83
2007-03-16 14:09 51°12.109 2°47.266 3.2 31 10.2 102640 84
2007-03-16 14:10 51°12.202 2°47.579 3.4 237 10.2 102650 84
2007-03-16 14:11 51°12.298 2°47.889 3.9 238 10.2 102640 84
2007-03-16 14:12 51°12.402 2°48.192 3.4 238 10.2 102640 84
2007-03-16 14:13 51°12.507 2°48.495 3.3 235 10.2 102640 84
2007-03-16 14:14 51°12.61 2°48.8 3.7 234 10.2 102640 84
2007-03-16 14:15 51°12.713 2°49.104 3.3 236 10.2 102630 84
2007-03-16 14:16 51°12.815 2°49.41 3 240 10.2 102630 83
2007-03-16 14:17 51°12.918 2°49.714 3.1 237 10.2 102630 83
2007-03-16 14:18 51°13.02 2°50.021 3 31 10.3 102630 83
2007-03-16 14:19 51°13.127 2°50.321 3.5 240 10.3 102630 83
2007-03-16 14:20 51°13.235 2°50.62 2.7 241 10.2 102640 83
2007-03-16 14:21 51°13.344 2°50.919 2.9 241 10.2 102640 83
2007-03-16 14:22 51°13.451 2°51.218 3.2 36 10.2 102630 83
2007-03-16 14:23 51°13.557 2°51.518 3 241 10.2 102630 83
2007-03-16 14:24 51°13.664 2°51.817 3.1 241 10.2 102630 83
2007-03-16 14:25 51°13.77 2°52.116 2.9 243 10.2 102630 83
2007-03-16 14:26 51°13.878 2°52.415 3.2 239 10.2 102630 82
2007-03-16 14:27 51°13.985 2°52.71 3.3 239 10.3 102630 83
2007-03-16 14:28 51°14.09 2°53.007 2.7 239 10.3 102630 83
2007-03-16 14:29 51°14.194 2°53.303 2.8 233 10.3 102620 83
2007-03-16 14:30 51°14.281 2°53.602 2.7 315 10.3 102620 83
2007-03-16 14:31 51°14.345 2°53.924 1.1 327 10.3 102620 83
2007-03-16 14:32 51°14.38 2°54.26 1.6 342 10.3 102620 82
2007-03-16 14:33 51°14.4 2°54.599 1.5 349 10.2 102620 82
2007-03-16 14:34 51°14.382 2°54.94 2.9 359 10.1 102610 82
2007-03-16 14:35 51°14.276 2°55.241 5.8 345 9.8 102610 84
2007-03-16 14:36 51°14.144 2°55.425 4.8 1 9.7 102610 86
2007-03-16 14:37 51°14.023 2°55.526 4.1 353 9.7 102600 86
2007-03-16 14:38 51°13.899 2°55.599 5.6 348 9.8 102600 86
2007-03-16 14:39 51°13.778 2°55.684 4.8 360 9.8 102590 85
2007-03-16 14:40 51°13.698 2°55.8 1.8 11 9.8 102590 85
2007-03-16 14:41 51°13.656 2°55.894 3.9 16 9.9 102600 84
2007-03-16 14:42 51°13.62 2°55.98 2.3 28 9.9 102600 83
2007-03-16 14:43 51°13.604 2°56.057 2.4 37 10 102590 83
2007-03-16 14:44 51°13.599 2°56.092 2.1 43 10 102590 82